Location: Krasnoyarskiy
(51.1133°N, 71.6497°E)
Time: 22:43:17
(UTC+00:00)

Cosmos 2278 - Pass Details

Date: 27 September 2022
Orbit: 841 x 851 km, 71.1° (Epoch: 02 December)

Event Time Altitude Azimuth Distance (km) Brightness Sun altitude
Rises 00:19:51 0° 329° (NNW) 3,411 6.6 -8.2°
Reaches altitude 10° 00:22:19 10° 330° (NNW) 2,471 5.9 -7.8°
Maximum altitude 00:28:00 90° 251° (WSW) 849 3.8 -6.9°
Drops below altitude 10° 00:33:39 10° 152° (SSE) 2,453 6.4 -6.1°
Sets 00:36:04 0° 153° (SSE) 3,385 7.2 -5.7°
